Content
SEND FEEDBACK

Daily
Averages
Monthly
Summary
United States of America

LANDER, WYOMING


Home > North America > United States > Wyoming
Elevation: 5514 feet     Latitude: 42 49N     Longitude: 108 44W

WEATHER
 
SELECT A DAY
Number of Records: 192,335;   Date Range: 1/1/95 - 7/7/14
 
SHARE

PRINT THIS DATA

[ ← Previous Day ]
WEATHER ALMANAC - JANUARY 31, 2013
[ Next Day → ]
[ °C ]   °F
Weather ElementAverageHighLow
Temperature30 °F43 °F (2:53 pm)18 °F (5:53 am)
Dewpoint14.4 °F19.9 °F (3:53 pm)9 °F (5:53 am)
Humidity53.2 %68 % (5:53 am)35 % (2:53 pm)
Barometer30.09 in30.15 in (7:53 pm)29.99 in (2:53 am)
Wind Speed4.7 mph13.8 mph (11:53 am)
Weather ElementAverage
Visibility10 mi
Wind DirectionESE (101.3 °)

Weather ElementTotal
Precipitation---
Heating Degree Days34.5 (Base 65)
Averaged from 23 records on January 31, 2013
WEATHER CONDITIONS BREAKOUT
WIND DIRECTION BREAKOUT
WEATHER BY HOUR - JANUARY 31, 2013
[ °C ]   °F
Local TimeTemperatureDewpointHumidityBarometerVisibilityWind DirectionWind SpeedGust SpeedPrecipitationEventsConditions
1:53 AM21.9 °F12.0 °F66 %30.00 in10.0 miCalmClear
2:53 AM25.0 °F12.0 °F58 %29.99 in10.0 miCalmClear
3:53 AM24.1 °F12.0 °F60 %29.99 in10.0 miCalmClear
4:53 AM23.0 °F10.0 °F58 %30.01 in10.0 miVariable5.8 mphClear
5:53 AM18.0 °F9.0 °F68 %30.07 in10.0 miESE (110°)3.5 mphClear
6:53 AM21.0 °F9.0 °F60 %30.08 in10.0 miCalmClear
7:53 AM19.9 °F9.0 °F62 %30.13 in10.0 miSSW (200°)3.5 mphClear
8:53 AM25.0 °F10.9 °F55 %30.12 in10.0 miCalmClear
9:53 AM32.0 °F14.0 °F48 %30.13 in10.0 miSSE (150°)5.8 mphClear
10:53 AM32.0 °F16.0 °F52 %30.13 in10.0 miSSE (150°)6.9 mphClear
11:53 AM37.0 °F18.0 °F46 %30.11 in10.0 miSSE (160°)13.8 mphClear
12:53 PM39.0 °F19.0 °F45 %30.07 in10.0 miSSE (160°)11.5 mphClear
1:53 PM41.0 °F19.0 °F41 %30.07 in10.0 miSSE (150°)9.2 mphClear
2:53 PM43.0 °F17.1 °F35 %30.05 in10.0 miESE (120°)3.5 mphClear
3:53 PM41.0 °F19.9 °F43 %30.06 in10.0 miSSE (150°)5.8 mphClear
4:53 PM37.0 °F19.9 °F50 %30.09 in10.0 miSouth (170°)9.2 mphClear
5:53 PM37.0 °F17.1 °F44 %30.12 in10.0 miWSW (250°)3.5 mphClear
6:53 PM32.0 °F16.0 °F52 %30.14 in10.0 miWSW (240°)8.1 mphClear
7:53 PM30.9 °F17.1 °F57 %30.15 in10.0 miCalmClear
8:53 PM28.0 °F15.1 °F58 %30.14 in10.0 miCalmClear
9:53 PM28.9 °F12.9 °F51 %30.11 in10.0 miSW (230°)6.9 mphClear
10:53 PM30.0 °F12.9 °F49 %30.10 in10.0 miVariable5.8 mphClear
11:53 PM23.0 °F12.9 °F65 %30.11 in10.0 miEast (90°)4.6 mphClear
Hourly data recorded from KLND, located miles away from Lander, Wyoming







STORIES FROM OUR PARTNERS